• In Belarus
  • List of Countries
  • For 7 days
  • Water Temperature
  • Satellite Maps
  • Weather Map
  • Weather Widgets
  • user-avatar
    Login

    Hourly Weather Dlugie

    Today, 16 August, Thursday

    Time Temperature Precipitation Wind Pressure Humidity
    00:00 +17°C° 0 mm 0 mps 758 mmHg 83%
    01:00 +16°C° 0 mm 0 mps 758 mmHg 84%
    02:00 +16°C° 0 mm 0 mps 758 mmHg 85%
    03:00 +18°C° 0 mm 1 mps 758 mmHg 86%
    04:00 +18°C° 0 mm 1 mps 758 mmHg 87%
    05:00 +19°C° 0 mm 1 mps 758 mmHg 82%
    06:00 +20°C° 0 mm 1 mps 758 mmHg 78%
    07:00 +21°C° 0 mm 1 mps 758 mmHg 73%
    08:00 +23°C° 0 mm 1 mps 758 mmHg 66%
    09:00 +24°C° 0 mm 1 mps 758 mmHg 60%
    10:00 +26°C° 0 mm 2 mps 758 mmHg 53%
    11:00 +27°C° 0 mm 2 mps 758 mmHg 50%
    12:00 +27°C° 0 mm 2 mps 758 mmHg 47%
    13:00 +28°C° 0 mm 2 mps 757 mmHg 44%
    14:00 +28°C° 0 mm 2 mps 757 mmHg 44%
    15:00 +28°C° 0 mm 2 mps 757 mmHg 45%
    16:00 +28°C° 0 mm 2 mps 756 mmHg 45%
    17:00 +27°C° 0 mm 2 mps 756 mmHg 49%
    18:00 +25°C° 0 mm 2 mps 756 mmHg 54%
    19:00 +24°C° 0 mm 2 mps 756 mmHg 58%
    20:00 +23°C° 0 mm 2 mps 756 mmHg 60%
    21:00 +21°C° 0 mm 3 mps 756 mmHg 62%
    22:00 +20°C° 0 mm 3 mps 756 mmHg 63%
    23:00 +20°C° 0 mm 3 mps 756 mmHg 65%

    Tomorrow, 17 August, Friday

    Time Temperature Precipitation Wind Pressure Humidity
    00:00 +20°C° 0 mm 2 mps 756 mmHg 66%
    01:00 +19°C° 0 mm 2 mps 756 mmHg 67%
    02:00 +19°C° 0 mm 2 mps 756 mmHg 69%
    03:00 +18°C° 0 mm 2 mps 756 mmHg 70%
    04:00 +18°C° 0 mm 2 mps 756 mmHg 71%
    05:00 +19°C° 0 mm 2 mps 756 mmHg 69%
    06:00 +20°C° 0 mm 3 mps 756 mmHg 66%
    07:00 +21°C° 0 mm 3 mps 756 mmHg 64%
    08:00 +24°C° 0 mm 3 mps 756 mmHg 59%
    09:00 +26°C° 0 mm 3 mps 756 mmHg 53%
    10:00 +28°C° 0 mm 4 mps 756 mmHg 48%
    11:00 +28°C° 0 mm 3 mps 755 mmHg 45%
    12:00 +29°C° 0 mm 3 mps 755 mmHg 43%
    13:00 +30°C° 0 mm 3 mps 755 mmHg 40%
    14:00 +30°C° 0 mm 3 mps 755 mmHg 40%
    15:00 +30°C° 0 mm 2 mps 754 mmHg 40%
    16:00 +30°C° 0 mm 2 mps 754 mmHg 41%
    17:00 +29°C° 0 mm 2 mps 754 mmHg 46%
    18:00 +27°C° 0 mm 2 mps 754 mmHg 50%
    19:00 +26°C° 0 mm 2 mps 754 mmHg 55%
    20:00 +25°C° 0 mm 2 mps 754 mmHg 58%
    21:00 +24°C° 0 mm 3 mps 755 mmHg 62%
    22:00 +22°C° 0 mm 3 mps 755 mmHg 65%
    23:00 +23°C° 0.3 mm 2 mps 755 mmHg 69%

    Day after tomorrow, 18 August, Saturday

    Time Temperature Precipitation Wind Pressure Humidity
    00:00 +21°C° 0.3 mm 2 mps 755 mmHg 74%
    01:00 +20°C° 0.3 mm 2 mps 755 mmHg 78%
    02:00 +21°C° 0 mm 1 mps 755 mmHg 79%
    03:00 +21°C° 0 mm 1 mps 756 mmHg 79%
    04:00 +21°C° 0 mm 1 mps 756 mmHg 80%
    05:00 +21°C° 0 mm 1 mps 756 mmHg 81%
    06:00 +21°C° 0 mm 2 mps 756 mmHg 82%
    07:00 +21°C° 0 mm 2 mps 757 mmHg 82%
    08:00 +23°C° 0.2 mm 2 mps 757 mmHg 79%
    09:00 +24°C° 0.2 mm 2 mps 757 mmHg 75%
    10:00 +24°C° 0.2 mm 3 mps 758 mmHg 72%
    11:00 +25°C° 0.7 mm 3 mps 758 mmHg 69%
    12:00 +26°C° 0.7 mm 3 mps 758 mmHg 66%
    13:00 +26°C° 0.7 mm 4 mps 758 mmHg 63%
    14:00 +26°C° 0.1 mm 4 mps 758 mmHg 62%
    15:00 +26°C° 0.1 mm 4 mps 758 mmHg 61%
    16:00 +26°C° 0.1 mm 3 mps 758 mmHg 60%
    17:00 +24°C° 0 mm 3 mps 758 mmHg 63%
    18:00 +23°C° 0 mm 2 mps 758 mmHg 66%
    19:00 +21°C° 0 mm 2 mps 758 mmHg 69%
    20:00 +21°C° 0 mm 1 mps 759 mmHg 72%
    21:00 +20°C° 0 mm 1 mps 759 mmHg 75%
    22:00 +19°C° 0 mm 1 mps 759 mmHg 77%
    23:00 +18°C° 0 mm 1 mps 760 mmHg 78%

    19 August, Sunday

    Time Temperature Precipitation Wind Pressure Humidity
    00:00 +18°C° 0 mm 1 mps 760 mmHg 79%
    01:00 +18°C° 0 mm 1 mps 760 mmHg 79%
    02:00 +18°C° 0 mm 1 mps 760 mmHg 80%
    03:00 +16°C° 0 mm 1 mps 760 mmHg 80%
    04:00 +16°C° 0 mm 1 mps 760 mmHg 80%
    05:00 +17°C° 0 mm 2 mps 760 mmHg 75%
    06:00 +18°C° 0 mm 2 mps 760 mmHg 70%
    07:00 +19°C° 0 mm 2 mps 760 mmHg 65%
    08:00 +21°C° 0 mm 2 mps 760 mmHg 60%
    09:00 +23°C° 0 mm 2 mps 760 mmHg 55%
    10:00 +25°C° 0 mm 3 mps 760 mmHg 50%
    11:00 +26°C° 0 mm 3 mps 760 mmHg 49%
    12:00 +27°C° 0 mm 3 mps 760 mmHg 48%
    13:00 +27°C° 0 mm 3 mps 760 mmHg 47%
    14:00 +27°C° 0 mm 3 mps 759 mmHg 47%
    15:00 +27°C° 0 mm 3 mps 759 mmHg 47%
    16:00 +28°C° 0 mm 3 mps 759 mmHg 48%
    17:00 +26°C° 0 mm 2 mps 759 mmHg 53%
    18:00 +25°C° 0 mm 2 mps 759 mmHg 58%
    19:00 +23°C° 0 mm 1 mps 759 mmHg 64%
    20:00 +23°C° 0 mm 1 mps 759 mmHg 66%
    21:00 +22°C° 0 mm 1 mps 759 mmHg 69%
    22:00 +21°C° 0 mm 1 mps 759 mmHg 72%
    23:00 +21°C° 0 mm 1 mps 759 mmHg 73%

    20 August, Monday

    Time Temperature Precipitation Wind Pressure Humidity
    00:00 +20°C° 0 mm 1 mps 759 mmHg 73%
    01:00 +19°C° 0 mm 2 mps 759 mmHg 74%
    02:00 +19°C° 0 mm 2 mps 758 mmHg 75%
    03:00 +19°C° 0 mm 2 mps 758 mmHg 75%
    04:00 +18°C° 0 mm 2 mps 758 mmHg 76%
    05:00 +19°C° 0 mm 2 mps 758 mmHg 72%
    06:00 +21°C° 0 mm 2 mps 758 mmHg 69%
    07:00 +22°C° 0 mm 3 mps 758 mmHg 65%
    08:00 +25°C° 0 mm 3 mps 757 mmHg 59%
    09:00 +26°C° 0 mm 3 mps 757 mmHg 52%
    10:00 +28°C° 0 mm 4 mps 757 mmHg 45%
    11:00 +29°C° 0 mm 4 mps 757 mmHg 43%
    12:00 +30°C° 0 mm 4 mps 757 mmHg 41%
    13:00 +32°C° 0 mm 5 mps 756 mmHg 39%
    14:00 +30°C° 0 mm 4 mps 756 mmHg 41%
    15:00 +30°C° 0 mm 4 mps 756 mmHg 44%
    16:00 +29°C° 0 mm 4 mps 756 mmHg 46%
    17:00 +28°C° 0 mm 3 mps 756 mmHg 53%
    18:00 +26°C° 0 mm 3 mps 756 mmHg 59%
    19:00 +25°C° 0 mm 2 mps 756 mmHg 65%
    20:00 +24°C° 0 mm 2 mps 756 mmHg 68%
    21:00 +23°C° 0 mm 2 mps 756 mmHg 71%
    22:00 +22°C° 0 mm 1 mps 756 mmHg 74%
    23:00 +20°C° 0 mm 2 mps 756 mmHg 77%

    21 August, Tuesday

    Time Temperature Precipitation Wind Pressure Humidity
    00:00 +20°C° 0 mm 2 mps 756 mmHg 79%
    01:00 +20°C° 0 mm 2 mps 756 mmHg 81%
    02:00 +19°C° 0 mm 2 mps 756 mmHg 83%
    03:00 +19°C° 0 mm 2 mps 756 mmHg 85%
    04:00 +19°C° 0 mm 2 mps 756 mmHg 87%
    05:00 +19°C° 0 mm 2 mps 756 mmHg 85%
    06:00 +20°C° 0 mm 2 mps 757 mmHg 83%
    07:00 +21°C° 0 mm 2 mps 757 mmHg 80%
    08:00 +23°C° 0.1 mm 2 mps 757 mmHg 77%
    09:00 +23°C° 0.1 mm 2 mps 757 mmHg 73%
    10:00 +24°C° 0.1 mm 2 mps 757 mmHg 69%
    11:00 +25°C° 0 mm 3 mps 756 mmHg 64%
    12:00 +26°C° 0 mm 3 mps 756 mmHg 59%
    13:00 +27°C° 0 mm 3 mps 756 mmHg 54%
    14:00 +27°C° 0 mm 3 mps 756 mmHg 55%
    15:00 +27°C° 0 mm 3 mps 756 mmHg 55%
    16:00 +27°C° 0 mm 3 mps 755 mmHg 56%
    17:00 +26°C° 0.1 mm 2 mps 755 mmHg 60%
    18:00 +25°C° 0.1 mm 2 mps 755 mmHg 65%
    19:00 +24°C° 0.1 mm 2 mps 755 mmHg 69%
    20:00 +23°C° 0 mm 2 mps 755 mmHg 72%
    21:00 +21°C° 0 mm 2 mps 755 mmHg 75%
    22:00 +20°C° 0 mm 2 mps 755 mmHg 78%
    23:00 +20°C° 0 mm 2 mps 755 mmHg 79%
    Show more